Walterboro, SC

1:47 AM EDT on August 19, 2017 (GMT -0400)
Lowcountry Regional

Weather History for KRBW - May, 2013

Change the Weather History Date:

Saturday, May 4, 2013

  Actual Average Record
Temperature  
Mean Temperature 60 °F -  
Max Temperature 66 °F 81 °F 86 °F (2012)
Min Temperature 53 °F 52 °F 50 °F (2014)
Degree Days  
Heating Degree Days 6    
Growing Degree Days 10 (Base 50)    
Moisture  
Dew Point 57 °F    
Average Humidity 91    
Maximum Humidity 100    
Minimum Humidity 59    
Precipitation  
Precipitation 0.00 in - - ()
Sea Level Pressure  
Sea Level Pressure 29.96 in    
Wind  
Wind Speed 11 mph (ENE)    
Max Wind Speed 17 mph    
Max Gust Speed 28 mph    
Visibility 10 miles    
Events Rain    
Averages and records for this station are not official NWS values.
T = Trace of Precipitation, MM = Missing Value Source: NWS Daily Summary

Daily Weather History Graph

Daily Weather History Graph

Search for Another Location

Airport or City:

Trip Planner

Search our weather history database for the weather conditions in past years. The results will help you decide how hot, cold, wet, or windy it might be!

Date:

Astronomy

May. 04, 2013 Rise Set
Actual Time 6:32 AM EDT 8:06 PM EDT
Civil Twilight 6:05 AM EDT 8:33 PM EDT
Nautical Twilight 5:33 AM EDT 9:05 PM EDT
Astronomical Twilight 5:00 AM EDT 9:38 PM EDT
Moon 3:12 AM EDT (5/4) 3:18 PM EDT (5/4)
Length of Visible Light 14h 27m
Length of Day
13h 34m
Waning Crescent, 27% of the Moon is Illuminated
May 4
Waning Crescent
May 9
New
May 18
First Quarter
May 25
Full
May 31
Last Quarter

Hourly Weather History & Observations

Time (EDT) Temp. Dew Point Humidity Pressure Visibility Wind Dir Wind Speed Gust Speed Precip Events Conditions
12:15 AM 60.8 °F 46.4 °F 59% 30.02 in 10.0 mi ENE 8.1 mph - N/A   Overcast
12:35 AM 60.8 °F 46.4 °F 59% 30.02 in 10.0 mi ENE 13.8 mph 18.4 mph N/A   Overcast
12:55 AM 60.8 °F 46.4 °F 59% 30.02 in 10.0 mi ENE 15.0 mph 19.6 mph N/A   Overcast
1:15 AM 60.8 °F 46.4 °F 59% 30.00 in 10.0 mi ENE 12.7 mph 20.7 mph N/A   Overcast
1:35 AM 59.0 °F 46.4 °F 63% 30.00 in 10.0 mi ENE 11.5 mph 19.6 mph N/A   Overcast
1:55 AM 59.0 °F 46.4 °F 63% 30.00 in 10.0 mi ENE 15.0 mph 20.7 mph N/A   Overcast
2:15 AM 59.0 °F 48.2 °F 67% 29.99 in 10.0 mi ENE 10.4 mph 23.0 mph N/A   Light Drizzle
2:35 AM 57.2 °F 50.0 °F 77% 29.99 in 10.0 mi NE 12.7 mph 18.4 mph N/A   Light Drizzle
2:55 AM 57.2 °F 50.0 °F 77% 29.98 in 10.0 mi ENE 10.4 mph 17.3 mph N/A   Overcast
3:15 AM 55.4 °F 51.8 °F 88% 29.98 in 10.0 mi NE 9.2 mph 18.4 mph N/A   Drizzle
3:35 AM 55.4 °F 51.8 °F 88% 29.97 in 10.0 mi NE 8.1 mph - N/A   Light Drizzle
3:55 AM 55.4 °F 51.8 °F 88% 29.97 in 10.0 mi NE 9.2 mph 17.3 mph N/A   Overcast
4:15 AM 55.4 °F 51.8 °F 88% 29.97 in 10.0 mi NE 6.9 mph 16.1 mph N/A   Overcast
4:35 AM 55.4 °F 51.8 °F 88% 29.97 in 10.0 mi NE 10.4 mph 16.1 mph N/A   Drizzle
4:55 AM 55.4 °F 51.8 °F 88% 29.97 in 10.0 mi NE 9.2 mph 16.1 mph N/A   Light Drizzle
5:15 AM 55.4 °F 51.8 °F 88% 29.97 in 10.0 mi NE 12.7 mph 17.3 mph N/A   Overcast
5:35 AM 55.4 °F 51.8 °F 88% 29.96 in 10.0 mi NE 12.7 mph 16.1 mph N/A Rain Light Rain
5:55 AM 53.6 °F 51.8 °F 94% 29.97 in 10.0 mi NE 10.4 mph 19.6 mph N/A   Light Drizzle
6:15 AM 53.6 °F 53.6 °F 100% 29.98 in 10.0 mi NE 11.5 mph 18.4 mph N/A   Drizzle
6:35 AM 53.6 °F 53.6 °F 100% 29.98 in 10.0 mi NE 10.4 mph - N/A   Drizzle
6:55 AM 53.6 °F 53.6 °F 100% 29.99 in 10.0 mi NE 9.2 mph - N/A   Drizzle
7:15 AM 53.6 °F 53.6 °F 100% 29.99 in 10.0 mi NE 9.2 mph - N/A   Light Drizzle
7:35 AM 53.6 °F 53.6 °F 100% 30.00 in 10.0 mi NE 10.4 mph 18.4 mph N/A   Overcast
7:55 AM 53.6 °F 53.6 °F 100% 30.00 in 10.0 mi NE 11.5 mph - N/A   Overcast
8:15 AM 53.6 °F 53.6 °F 100% 30.00 in 10.0 mi ENE 9.2 mph 19.6 mph N/A   Overcast
8:35 AM 55.4 °F 55.4 °F 100% 30.00 in 10.0 mi NE 10.4 mph 17.3 mph N/A   Overcast
8:55 AM 55.4 °F 55.4 °F 100% 30.00 in 10.0 mi NE 11.5 mph 16.1 mph N/A   Overcast
9:15 AM 55.4 °F 55.4 °F 100% 30.00 in 10.0 mi ENE 13.8 mph 19.6 mph N/A   Overcast
9:35 AM 57.2 °F 55.4 °F 94% 30.00 in 10.0 mi NE 11.5 mph 19.6 mph N/A   Overcast
9:55 AM 59.0 °F 55.4 °F 88% 29.99 in 10.0 mi ENE 10.4 mph 21.9 mph N/A   Overcast
10:15 AM 60.8 °F 55.4 °F 82% 29.99 in 10.0 mi ENE 12.7 mph 17.3 mph N/A   Overcast
10:35 AM 60.8 °F 55.4 °F 82% 29.99 in 10.0 mi ENE 12.7 mph 25.3 mph N/A   Overcast
10:55 AM 62.6 °F 57.2 °F 82% 29.99 in 10.0 mi East 17.3 mph - N/A   Overcast
11:15 AM 62.6 °F 57.2 °F 82% 29.98 in 10.0 mi East 12.7 mph 20.7 mph N/A   Overcast
11:35 AM 64.4 °F 57.2 °F 77% 29.98 in 10.0 mi East 15.0 mph 24.2 mph N/A   Overcast
11:55 AM 64.4 °F 59.0 °F 83% 29.98 in 10.0 mi East 13.8 mph 27.6 mph N/A   Overcast
12:15 PM 64.4 °F 59.0 °F 83% 29.97 in 10.0 mi East 12.7 mph 20.7 mph N/A   Overcast
12:35 PM 66.2 °F 59.0 °F 78% 29.97 in 10.0 mi East 17.3 mph 23.0 mph N/A   Overcast
12:55 PM 66.2 °F 59.0 °F 78% 29.97 in 10.0 mi East 13.8 mph 17.3 mph N/A   Overcast
1:15 PM 64.4 °F 59.0 °F 83% 29.96 in 10.0 mi East 12.7 mph 23.0 mph N/A   Overcast
1:35 PM 64.4 °F 59.0 °F 83% 29.96 in 10.0 mi East 11.5 mph 20.7 mph N/A   Light Drizzle
1:55 PM 62.6 °F 59.0 °F 88% 29.96 in 10.0 mi ENE 10.4 mph - N/A Rain Rain
2:15 PM 62.6 °F 60.8 °F 94% 29.95 in 7.0 mi ENE 6.9 mph - N/A Rain Light Rain
2:35 PM 62.6 °F 62.6 °F 100% 29.94 in 7.0 mi ENE 9.2 mph - N/A Rain Light Rain
2:55 PM 62.6 °F 62.6 °F 100% 29.93 in 7.0 mi ENE 6.9 mph - N/A Rain Rain
3:15 PM 62.6 °F 62.6 °F 100% 29.93 in 7.0 mi NE 6.9 mph - N/A Rain Light Rain
3:35 PM 62.6 °F 62.6 °F 100% 29.92 in 10.0 mi ENE 10.4 mph - N/A Rain Light Rain
4:15 PM 62.6 °F 62.6 °F 100% 29.93 in 5.0 mi East 9.2 mph - N/A Rain Rain
4:35 PM 62.6 °F 62.6 °F 100% 29.93 in 10.0 mi ENE 10.4 mph - N/A   Drizzle
5:15 PM 62.6 °F 62.6 °F 100% 29.91 in 10.0 mi NE 9.2 mph - N/A Rain Light Rain
5:35 PM 62.6 °F 62.6 °F 100% 29.92 in 10.0 mi NE 8.1 mph 17.3 mph N/A   Drizzle
5:55 PM 62.6 °F 62.6 °F 100% 29.92 in 10.0 mi ENE 10.4 mph - N/A   Light Drizzle
6:15 PM 62.6 °F 62.6 °F 100% 29.91 in 10.0 mi ENE 9.2 mph 16.1 mph N/A   Overcast
6:35 PM 60.8 °F 60.8 °F 100% 29.92 in 10.0 mi ENE 6.9 mph - N/A   Overcast
6:55 PM 60.8 °F 60.8 °F 100% 29.92 in 10.0 mi ENE 9.2 mph - N/A   Overcast
7:15 PM 60.8 °F 60.8 °F 100% 29.92 in 10.0 mi East 12.7 mph 16.1 mph N/A   Overcast
7:35 PM 60.8 °F 60.8 °F 100% 29.93 in 10.0 mi NE 9.2 mph - N/A   Overcast
7:55 PM 60.8 °F 60.8 °F 100% 29.92 in 10.0 mi ENE 11.5 mph - N/A Rain Light Rain
8:15 PM 60.8 °F 60.8 °F 100% 29.91 in 10.0 mi ENE 12.7 mph 16.1 mph N/A Rain Rain
8:35 PM 60.8 °F 60.8 °F 100% 29.90 in 10.0 mi ENE 11.5 mph - N/A Rain Light Rain
8:55 PM 60.8 °F 60.8 °F 100% 29.90 in 10.0 mi East 11.5 mph 19.6 mph N/A   Drizzle
9:15 PM 60.8 °F 60.8 °F 100% 29.89 in 10.0 mi ENE 11.5 mph - N/A   Light Drizzle
9:35 PM 60.8 °F 60.8 °F 100% 29.90 in 10.0 mi ENE 12.7 mph 17.3 mph N/A Rain Rain
9:55 PM 60.8 °F 60.8 °F 100% 29.91 in 10.0 mi East 13.8 mph - N/A   Drizzle
10:15 PM 60.8 °F 60.8 °F 100% 29.92 in 10.0 mi East 9.2 mph 16.1 mph N/A Rain Rain
10:35 PM 60.8 °F 60.8 °F 100% 29.92 in 10.0 mi East 12.7 mph 18.4 mph N/A   Overcast
10:55 PM 60.8 °F 60.8 °F 100% 29.91 in 10.0 mi East 13.8 mph - N/A   Overcast
11:15 PM 60.8 °F 60.8 °F 100% 29.91 in 10.0 mi East 15.0 mph 18.4 mph N/A Rain Rain
11:35 PM 60.8 °F 60.8 °F 100% 29.91 in 10.0 mi East 12.7 mph 18.4 mph N/A   Overcast
11:55 PM 60.8 °F 60.8 °F 100% 29.91 in 10.0 mi East 11.5 mph 16.1 mph N/A   Overcast